Location: Complexul Astronomic Baia Mare
(47.6577°N, 23.5639°E)
Time: 01:49:55
(UTC+03:00)

ISS - Pass Details

Date: 28 May 2017
Orbit: 400 x 408 km, 51.6° (Epoch: 26 July)

Event Time Altitude Azimuth Distance (km) Brightness Sun altitude
Rises 22:22:14 0° 255° (WSW) 2,342 0.4 -9.7°
Reaches altitude 10° 22:24:20 10° 259° (WSW) 1,481 -0.6 -10.0°
Maximum altitude 22:27:38 64° 342° (NNW) 462 -3.3 -10.3°
Drops below altitude 10° 22:30:56 10° 64° (ENE) 1,481 -1.1 -10.7°
Enters shadow 22:36:04 -9° 70° (ENE) 3,586 0.8 -11.3°
